Location: Lombard
(41.8800°N, 88.0080°W)
Time: 05:48:40
(UTC-05:00)

Vanguard 3 - Pass Details

Date: 30 January 2023
Orbit: 508 x 3249 km, 33.4° (Epoch: 27 March)

Event Time Altitude Azimuth Distance (km) Brightness Sun altitude
Rises 22:16:52 0° 264° (W) 5,502 11.7 -56.3°
Reaches altitude 10° 22:20:00 10° 261° (W) 4,805 11.3 -56.8°
Enters shadow 22:26:04 34° 251° (WSW) 3,715 10.4 -57.7°
